Location: Azul
(36.7830°S, 59.8500°W)
Time: 08:12:13
(UTC-03:00)

ISS - Pass Details

Date: 27 May 2020
Orbit: 417 x 419 km, 51.6° (Epoch: 31 May)

Event Time Altitude Azimuth Distance (km) Brightness Sun altitude
Exits shadow 07:12:20 10° 218° (SW) 1,541 -1.4 -9.6°
Reaches altitude 10° 07:12:27 10° 216° (SW) 1,527 -1.4 -9.6°
Maximum altitude 07:13:27 11° 199° (SSW) 1,469 -1.4 -9.4°
Drops below altitude 10° 07:14:27 10° 182° (S) 1,529 -1.1 -9.2°
Sets 07:18:00 0° 143° (SE) 2,398 0.3 -8.6°
